Waarnemingen

Advertentie
Mijn weer
Charleroi/Gosselies, België (6449): temperatuur & dauwpunt: 19.06.2019 14:00:00 - 25.06.2019 14:00:00 (CEST)Charleroi/Gosselies, België (6449): windsnelheid & windstoten: 19.06.2019 14:00:00 - 25.06.2019 14:00:00 (CEST)Charleroi/Gosselies, België (6449): windrichting: 19.06.2019 14:00:00 - 25.06.2019 14:00:00 (CEST)Charleroi/Gosselies, België (6449): luchtdruk: 19.06.2019 14:00:00 - 25.06.2019 14:00:00 (CEST)Charleroi/Gosselies, België (6449): zicht: 19.06.2019 14:00:00 - 25.06.2019 14:00:00 (CEST)
Datum & Tijd tt [°C] td [°C] ff [km/u] ff [kn] fx [km/u] fx [kn] dd ppp [hPa] vv [km]
25.06.2019 14:00:00 30,0 18,9 22 12 - - ZW 1016,4 10
25.06.2019 13:00:00 29,7 18,7 18 10 32 18 ZZW 1015,9 10
25.06.2019 12:00:00 29,6 18,8 15 8 29 16 Z 1015,3 10
25.06.2019 11:00:00 28,1 18,3 16 9 - - Z 1015,4 10
25.06.2019 10:00:00 26,7 18,5 15 8 25 14 ZZO 1015,2 10
25.06.2019 09:00:00 24,7 18,4 15 8 22 12 ZZO 1015,3 10
25.06.2019 08:00:00 22,7 17,8 11 6 - - ZZO 1015,3 10
25.06.2019 07:00:00 21,6 17,2 11 6 14 8 ZZO 1015,4 10
25.06.2019 06:00:00 21,3 16,7 8 4 11 6 ZO 1015,4 10
25.06.2019 05:00:00 21,2 17,3 8 4 - - O 1015,4 10
25.06.2019 04:00:00 21,0 17,3 9 5 14 8 O 1015,6 10
25.06.2019 03:00:00 21,2 16,8 8 4 11 6 O 1016,2 10
25.06.2019 02:00:00 21,9 17,9 8 4 - - ONO 1016,4 10
25.06.2019 01:00:00 23,1 18,0 5 3 18 10 O 1016,8 10
25.06.2019 00:00:00 23,6 17,7 9 5 14 8 ONO 1016,9 10
24.06.2019 23:00:00 24,5 18,6 11 6 - - ONO 1017,0 10
24.06.2019 22:00:00 25,8 18,7 9 5 18 10 NO 1016,7 10
24.06.2019 21:00:00 26,7 18,7 13 7 18 10 NNO 1016,6 10
24.06.2019 20:00:00 27,9 18,1 13 7 - - NO 1016,3 10
24.06.2019 19:00:00 28,4 17,8 11 6 18 10 N 1016,5 10
24.06.2019 18:00:00 28,5 17,7 9 5 18 10 N 1016,9 10
24.06.2019 17:00:00 29,6 17,3 13 7 - - N 1016,8 10
24.06.2019 16:00:00 29,2 17,7 4 2 22 12 - 1016,9 10
24.06.2019 15:00:00 29,2 17,2 7 4 22 12 Z 1017,2 25
24.06.2019 14:00:00 28,3 17,8 8 4 - - - 1017,0 10
24.06.2019 13:00:00 28,4 19,1 11 6 22 12 ZO 1016,7 10
24.06.2019 12:00:00 27,2 17,8 13 7 22 12 ZZO 1016,9 10
24.06.2019 11:00:00 26,2 18,3 13 7 - - ZZO 1017,1 10
24.06.2019 10:00:00 24,8 18,3 11 6 22 12 ZZO 1017,2 10
24.06.2019 09:00:00 22,8 17,1 13 7 22 12 ZO 1017,2 10
24.06.2019 08:00:00 20,8 16,4 11 6 - - ZZO 1017,3 10
24.06.2019 07:00:00 19,4 16,0 9 5 14 8 ZZO 1017,0 10
24.06.2019 06:00:00 19,1 15,6 8 4 14 8 ZZO 1017,0 10
24.06.2019 05:00:00 19,2 15,6 11 6 - - ZO 1017,1 10
24.06.2019 04:00:00 19,3 15,9 8 4 11 6 OZO 1017,3 10
24.06.2019 03:00:00 19,9 15,7 9 5 11 6 OZO 1017,3 10
24.06.2019 02:00:00 20,8 15,8 9 5 - - OZO 1017,4 10
24.06.2019 01:00:00 21,0 15,8 8 4 11 6 ZO 1017,4 10
24.06.2019 00:00:00 22,4 16,1 5 3 14 8 OZO 1016,9 10
23.06.2019 23:00:00 23,0 16,0 5 3 - - ZO 1016,7 10
23.06.2019 22:00:00 24,6 15,1 8 4 25 14 O 1016,2 10
23.06.2019 21:00:00 25,6 14,6 11 6 32 18 ZO 1015,9 10
23.06.2019 20:00:00 26,5 14,8 16 9 - - ZO 1015,5 10
23.06.2019 19:00:00 26,6 15,2 16 9 29 16 OZO 1015,4 10
23.06.2019 18:00:00 26,9 14,9 16 9 32 18 ZO 1015,6 10
23.06.2019 17:00:00 26,8 14,8 18 10 - - ZO 1015,7 10
23.06.2019 16:00:00 26,7 15,6 15 8 32 18 OZO 1015,9 10
23.06.2019 15:00:00 26,5 15,2 15 8 32 18 O 1016,1 10
23.06.2019 14:00:00 27,4 15,2 15 8 - - O 1016,6 10
23.06.2019 13:00:00 26,0 14,7 13 7 25 14 ONO 1016,7 10
23.06.2019 12:00:00 25,0 15,4 15 8 25 14 ONO 1017,2 10
23.06.2019 11:00:00 24,3 16,1 5 3 - - O 1017,5 10
23.06.2019 10:00:00 22,2 14,8 13 7 25 14 O 1017,7 10
23.06.2019 09:00:00 20,7 14,2 9 5 18 10 O 1018,1 10
23.06.2019 08:00:00 17,7 13,1 4 2 - - - 1018,4 10
23.06.2019 07:00:00 15,6 12,7 8 4 11 6 ONO 1018,4 10
23.06.2019 06:00:00 14,3 11,8 8 4 7 4 ONO 1018,5 10
23.06.2019 05:00:00 14,4 11,8 7 4 - - NO 1018,6 25
23.06.2019 04:00:00 15,6 12,0 11 6 14 8 ONO 1018,6 10
23.06.2019 03:00:00 15,3 11,3 8 4 11 6 N 1019,1 10
23.06.2019 02:00:00 15,9 11,1 8 4 - - N 1019,0 10
23.06.2019 01:00:00 17,2 11,3 11 6 14 8 NO 1019,0 10
23.06.2019 00:00:00 17,7 11,2 8 4 14 8 N 1019,2 10
22.06.2019 23:00:00 18,5 11,5 8 4 - - N 1019,3 10
22.06.2019 22:00:00 19,3 11,9 8 4 18 10 N 1018,7 10
22.06.2019 21:00:00 20,5 11,4 11 6 22 12 NO 1018,4 10
22.06.2019 20:00:00 21,6 10,6 15 8 - - NNO 1018,5 10
22.06.2019 19:00:00 22,0 10,2 16 9 29 16 NO 1018,5 10
22.06.2019 18:00:00 22,2 10,6 16 9 29 16 NNO 1018,6 10
22.06.2019 17:00:00 22,0 10,8 13 7 - - NO 1019,1 10
22.06.2019 16:00:00 22,2 11,2 16 9 29 16 NNO 1019,5 10
22.06.2019 15:00:00 22,1 11,7 18 10 32 18 NO 1019,9 10
22.06.2019 14:00:00 21,0 11,7 16 9 - - NO 1020,3 10
22.06.2019 13:00:00 20,0 10,9 18 10 32 18 ONO 1020,6 10
22.06.2019 12:00:00 19,7 11,4 18 10 32 18 NO 1020,9 10
22.06.2019 11:00:00 18,2 11,6 18 10 - - NO 1021,2 10
22.06.2019 10:00:00 16,6 11,2 13 7 22 12 NO 1021,6 10
22.06.2019 09:00:00 14,7 10,4 11 6 18 10 NNO 1021,7 10
22.06.2019 08:00:00 12,4 9,5 11 6 - - NO 1022,0 10
22.06.2019 07:00:00 11,4 8,9 9 5 14 8 NNO 1022,2 10
22.06.2019 06:00:00 10,1 8,3 8 4 11 6 NNO 1022,3 10
22.06.2019 05:00:00 10,1 8,1 9 5 - - NNO 1022,5 10
22.06.2019 04:00:00 11,1 8,3 8 4 14 8 ONO 1022,6 10
22.06.2019 03:00:00 11,3 8,4 8 4 11 6 NNO 1022,8 10
22.06.2019 02:00:00 11,7 8,4 8 4 - - ONO 1023,2 10
22.06.2019 01:00:00 12,4 8,0 8 4 14 8 N 1023,1 10
22.06.2019 00:00:00 13,0 8,5 9 5 14 8 N 1022,9 10
21.06.2019 23:00:00 14,5 8,9 8 4 - - N 1022,4 10
21.06.2019 22:00:00 16,7 8,0 5 3 11 6 NNW 1021,5 10
21.06.2019 21:00:00 17,8 7,6 8 4 14 8 NW 1020,9 10
21.06.2019 20:00:00 17,7 7,4 4 2 - - - 1020,7 10
21.06.2019 19:00:00 18,7 8,7 8 4 18 10 NW 1020,5 10
21.06.2019 18:00:00 18,9 8,2 11 6 22 12 - 1020,5 10
21.06.2019 17:00:00 18,1 8,8 9 5 - - NW 1020,6 10
21.06.2019 16:00:00 19,0 9,6 11 6 25 14 NNW 1020,5 10
21.06.2019 15:00:00 18,0 9,0 15 8 25 14 WNW 1020,6 10
21.06.2019 14:00:00 17,0 8,4 11 6 - - WNW 1020,6 10
21.06.2019 13:00:00 17,9 9,1 13 7 29 16 WZW 1020,5 10
21.06.2019 12:00:00 17,3 9,4 15 8 25 14 WZW 1020,4 10
21.06.2019 11:00:00 15,9 9,7 11 6 - - WZW 1020,4 10
21.06.2019 10:00:00 14,6 10,0 13 7 22 12 W 1020,3 10
21.06.2019 09:00:00 13,9 10,3 15 8 22 12 WZW 1020,1 10
21.06.2019 08:00:00 12,2 9,7 15 8 - - ZW 1019,8 10
21.06.2019 07:00:00 10,7 8,6 11 6 14 8 ZW 1019,5 10
21.06.2019 06:00:00 9,8 8,2 11 6 14 8 ZW 1019,4 10
21.06.2019 05:00:00 9,9 8,3 11 6 - - ZW 1019,1 10
21.06.2019 04:00:00 10,3 8,3 11 6 18 10 ZZW 1018,9 10
21.06.2019 03:00:00 10,6 8,3 11 6 14 8 ZW 1018,8 10
21.06.2019 02:00:00 11,2 8,2 13 7 - - ZW 1018,5 10
21.06.2019 01:00:00 12,3 8,3 11 6 14 8 WZW 1018,2 10
21.06.2019 00:00:00 13,0 8,3 8 4 11 6 WZW 1017,8 10
20.06.2019 23:00:00 13,4 8,6 8 4 - - WZW 1017,2 10
20.06.2019 22:00:00 14,8 7,5 9 5 29 16 W 1016,7 10
20.06.2019 21:00:00 16,6 6,5 16 9 32 18 WZW 1016,0 10
20.06.2019 20:00:00 18,0 9,4 16 9 - - W 1015,4 10
20.06.2019 19:00:00 19,2 9,2 18 10 36 19 WZW 1014,8 10
20.06.2019 18:00:00 19,4 10,4 16 9 32 18 W 1014,3 10
20.06.2019 17:00:00 20,4 11,7 21 11 - - W 1014,0 10
20.06.2019 16:00:00 18,9 12,0 21 11 32 18 WZW 1013,9 10
20.06.2019 15:00:00 18,8 12,0 15 8 29 16 W 1013,7 10
20.06.2019 14:00:00 18,9 12,6 21 11 - - WZW 1013,6 10
20.06.2019 13:00:00 17,1 13,3 15 8 25 14 WZW 1013,5 10
20.06.2019 12:00:00 16,3 14,4 13 7 18 10 ZW 1013,4 10
20.06.2019 11:00:00 15,4 13,0 14 8 - - ZW 1013,2 8
20.06.2019 10:00:00 14,7 13,3 13 7 25 14 WZW 1013,0 6
20.06.2019 09:00:00 14,5 12,9 13 7 22 12 ZW 1012,8 6
20.06.2019 08:00:00 14,3 12,9 13 7 - - ZW 1012,6 6
20.06.2019 07:00:00 14,2 12,8 11 6 22 12 ZW 1012,2 6
20.06.2019 06:00:00 14,2 13,1 11 6 18 10 ZW 1012,1 4,5
20.06.2019 05:00:00 14,3 13,4 9 5 - - WZW 1011,6 3,5
20.06.2019 04:00:00 14,3 13,6 11 6 22 12 ZW 1011,4 4,0
20.06.2019 03:00:00 14,5 13,9 15 8 25 14 WZW 1011,2 4,5
20.06.2019 02:00:00 14,9 14,2 16 9 - - ZW 1011,2 8
20.06.2019 01:00:00 15,1 14,6 11 6 22 12 ZZW 1010,8 10
20.06.2019 00:00:00 15,3 14,4 15 8 22 12 ZW 1010,3 10
19.06.2019 23:00:00 15,3 14,2 11 6 - - WZW 1009,8 10
19.06.2019 22:00:00 16,2 14,6 13 7 22 12 ZZW 1009,1 10
19.06.2019 21:00:00 16,3 15,1 11 6 32 18 WZW 1009,3 10
19.06.2019 20:00:00 18,7 15,0 8 4 - - Z 1008,1 10
19.06.2019 19:00:00 17,4 15,4 11 6 25 14 Z 1008,2 25
19.06.2019 18:00:00 16,2 14,6 15 8 54 29 ZZW 1009,6 10
19.06.2019 17:00:00 20,3 18,5 5 3 - - Z 1007,8 10
19.06.2019 16:00:00 17,9 15,7 21 11 40 21 W 1008,4 7
19.06.2019 15:00:00 25,9 13,2 16 9 32 18 Z 1007,1 10
19.06.2019 14:00:00 24,8 14,2 18 10 - - Z 1007,6 10

tt = temperatuur
td = dauwpunt
ff = windsnelheid
fx = windstoten
dd = windrichting
ppp = luchtdruk
vv = zicht

Weerstations in de omgeving